QPF
0.00 0.00 0.00 0.00 0.00 0.00 0.00 0.00 0.00 0.00 0.00 0.00 0.00 0.00 0.00 0.00 0.00 0.00 0.00 0.00 0.00 0.00 0.00 0.00 0.00 0.00 0.00 0.00 0.00 0.00 0.00 0.00 0.00 0.00 0.00 0.00 0.00 0.00 0.00 0.00 0.00 0.00 0.01 0.01
0.00 0.00 0.00 0.00 0.00 0.00 0.00 0.00 0.00 0.00 0.00 0.00 0.00 0.00 0.00 0.00 0.00 0.00 0.00 0.00 0.00 0.00 0.00 0.00 0.00 0.00 0.00 0.00 0.00 0.00 0.00 0.00 0.00 0.00 0.00 0.00 0.00 0.00 0.00 0.00 0.00 0.01 0.03 0.03
0.00 0.00 0.00 0.00 0.00 0.00 0.00 0.00 0.00 0.00 0.00 0.00 0.00 0.00 0.00 0.00 0.00 0.00 0.00 0.00 0.00 0.00 0.00 0.00 0.00 0.00 0.00 0.00 0.00 0.00 0.00 0.00 0.00 0.00 0.00 0.00 0.00 0.00 0.00 0.01 0.01 0.03 0.05 0.07
0.00 0.00 0.00 0.00 0.00 0.00 0.00 0.00 0.00 0.00 0.00 0.00 0.00 0.00 0.00 0.00 0.00 0.00 0.00 0.00 0.00 0.00 0.00 0.00 0.00 0.00 0.00 0.00 0.00 0.00 0.00 0.00 0.00 0.00 0.00 0.00 0.00 0.00 0.00 0.01 0.02 0.03 0.04 0.05
0.01 0.00 0.00 0.00 0.00 0.00 0.00 0.00 0.00 0.00 0.00 0.00 0.00 0.00 0.00 0.00 0.00 0.00 0.00 0.00 0.00 0.00 0.00 0.00 0.00 0.00 0.00 0.00 0.00 0.00 0.00 0.00 0.00 0.00 0.00 0.00 0.00 0.00 0.00 0.01 0.01 0.02 0.03 0.03
0.01 0.00 0.00 0.00 0.00 0.00 0.00 0.00 0.00 0.00 0.00 0.00 0.00 0.00 0.00 0.00 0.00 0.00 0.00 0.00 0.00 0.00 0.00 0.00 0.00 0.00 0.00 0.00 0.00 0.00 0.00 0.00 0.00 0.00 0.00 0.00 0.00 0.00 0.00 0.00 0.00 0.01 0.01 0.02
0.01 0.01 0.00 0.00 0.00 0.00 0.01 0.01 0.00 0.00 0.00 0.00 0.00 0.00 0.00 0.00 0.00 0.00 0.00 0.00 0.00 0.00 0.00 0.00 0.00 0.00 0.00 0.00 0.00 0.00 0.00 0.00 0.00 0.00 0.00 0.00 0.00 0.00 0.00 0.00 0.00 0.00 0.00 0.01
0.01 0.01 0.00 0.00 0.00 0.00 0.01 0.00 0.00 0.00 0.00 0.00 0.00 0.00 0.00 0.00 0.00 0.00 0.00 0.00 0.00 0.00 0.00 0.00 0.00 0.00 0.00 0.00 0.00 0.00 0.00 0.00 0.00 0.00 0.00 0.00 0.00 0.00 0.00 0.00 0.00 0.00 0.00 0.00
0.00 0.00 0.00 0.00 0.00 0.00 0.00 0.00 0.00 0.00 0.00 0.00 0.00 0.00 0.00 0.00 0.00 0.00 0.00 0.00 0.00 0.00 0.00 0.00 0.00 0.00 0.00 0.00 0.00 0.00 0.00 0.00 0.00 0.00 0.00 0.00 0.00 0.00 0.00 0.00 0.00 0.00 0.00 0.00
0.00 0.00 0.00 0.00 0.00 0.00 0.00 0.00 0.00 0.00 0.00 0.00 0.00 0.00 0.00 0.00 0.00 0.00 0.00 0.00 0.00 0.00 0.00 0.00 0.00 0.00 0.00 0.00 0.00 0.00 0.00 0.00 0.00 0.00 0.00 0.00 0.00 0.00 0.00 0.00 0.00 0.00 0.00 0.00
0.00 0.00 0.00 0.00 0.00 0.00 0.00 0.00 0.00 0.00 0.00 0.00 0.00 0.00 0.00 0.00 0.00 0.00 0.00 0.00 0.00 0.00 0.00 0.00 0.00 0.00 0.00 0.00 0.00 0.00 0.00 0.00 0.00 0.00 0.00 0.00 0.00 0.00 0.00 0.00 0.00 0.00 0.00 0.00
0.01 0.00 0.01 0.00 0.00 0.00 0.00 0.00 0.00 0.00 0.00 0.00 0.00 0.00 0.00 0.00 0.00 0.00 0.00 0.00 0.00 0.00 0.00 0.00 0.00 0.00 0.00 0.00 0.00 0.00 0.00 0.00 0.00 0.00 0.00 0.00 0.00 0.00 0.00 0.00 0.00 0.00 0.00 0.00
0.00 0.00 0.00 0.00 0.00 0.00 0.00 0.00 0.00 0.00 0.00 0.00 0.00 0.00 0.00 0.00 0.00 0.00 0.00 0.00 0.00 0.00 0.00 0.00 0.00 0.00 0.00 0.00 0.00 0.00 0.00 0.00 0.00 0.00 0.00 0.00 0.00 0.00 0.00 0.00 0.00 0.00 0.00 0.00
0.00 0.00 0.00 0.00 0.00 0.00 0.00 0.00 0.00 0.00 0.00 0.00 0.00 0.00 0.00 0.00 0.00 0.00 0.00 0.00 0.00 0.00 0.00 0.00 0.00 0.00 0.00 0.00 0.00 0.00 0.00 0.00 0.00 0.00 0.00 0.00 0.00 0.00 0.00 0.00 0.00 0.00 0.00 0.00
0.00 0.00 0.00 0.00 0.00 0.00 0.00 0.00 0.00 0.00 0.00 0.00 0.00 0.00 0.00 0.00 0.00 0.00 0.00 0.00 0.00 0.00 0.00 0.00 0.00 0.00 0.00 0.00 0.00 0.00 0.00 0.00 0.00 0.00 0.00 0.00 0.00 0.00 0.00 0.00 0.00 0.00 0.00 0.00
0.00 0.00 0.00 0.00 0.00 0.00 0.00 0.00 0.00 0.00 0.00 0.00 0.00 0.00 0.00 0.00 0.00 0.00 0.00 0.00 0.00 0.00 0.00 0.00 0.00 0.00 0.00 0.00 0.00 0.00 0.00 0.00 0.00 0.00 0.00 0.00 0.00 0.00 0.00 0.00 0.00 0.00 0.00 0.00
0.00 0.00 0.00 0.00 0.00 0.00 0.00 0.00 0.00 0.00 0.00 0.00 0.00 0.00 0.00 0.00 0.00 0.00 0.00 0.00 0.00 0.00 0.00 0.00 0.00 0.00 0.00 0.00 0.00 0.00 0.00 0.00 0.00 0.00 0.00 0.00 0.00 0.00 0.00 0.00 0.00 0.00 0.00 0.00
0.00 0.00 0.00 0.00 0.00 0.00 0.00 0.00 0.00 0.00 0.00 0.00 0.00 0.00 0.00 0.00 0.00 0.00 0.00 0.00 0.00 0.00 0.00 0.00 0.00 0.00 0.00 0.00 0.00 0.00 0.00 0.00 0.00 0.00 0.00 0.00 0.00 0.00 0.00 0.00 0.00 0.00 0.00 0.00
0.00 0.00 0.00 0.00 0.00 0.00 0.00 0.00 0.00 0.00 0.00 0.00 0.00 0.00 0.00 0.00 0.00 0.00 0.00 0.00 0.00 0.01 0.01 0.01 0.01 0.01 0.00 0.00 0.00 0.00 0.00 0.00 0.00 0.00 0.00 0.00 0.00 0.00 0.00 0.00 0.00 0.00 0.00 0.00
0.01 0.01 0.01 0.01 0.00 0.00 0.00 0.00 0.00 0.00 0.00 0.00 0.00 0.00 0.01 0.00 0.00 0.00 0.00 0.00 0.00 0.01 0.01 0.01 0.01 0.01 0.01 0.01 0.01 0.00 0.00 0.00 0.00 0.00 0.00 0.00 0.00 0.00 0.00 0.00 0.00 0.00 0.00 0.00
0.01 0.01 0.01 0.01 0.01 0.01 0.01 0.01 0.01 0.01 0.00 0.00 0.00 0.00 0.00 0.00 0.00 0.00 0.00 0.00 0.01 0.01 0.02 0.02 0.02 0.01 0.01 0.01 0.01 0.01 0.00 0.00 0.00 0.00 0.00 0.00 0.00 0.00 0.00 0.00 0.00 0.00 0.00 0.00
0.01 0.01 0.01 0.00 0.00 0.00 0.00 0.01 0.01 0.01 0.01 0.01 0.00 0.00 0.01 0.01 0.01 0.01 0.01 0.01 0.01 0.02 0.02 0.02 0.02 0.02 0.02 0.02 0.02 0.01 0.01 0.00 0.00 0.00 0.00 0.00 0.00 0.00 0.00 0.00 0.00 0.00 0.00 0.00
0.01 0.01 0.01 0.01 0.01 0.01 0.01 0.01 0.01 0.01 0.01 0.01 0.01 0.01 0.01 0.01 0.01 0.01 0.01 0.01 0.01 0.02 0.02 0.01 0.02 0.03 0.03 0.03 0.02 0.01 0.01 0.00 0.00 0.00 0.00 0.00 0.00 0.00 0.00 0.00 0.00 0.00 0.00 0.00
0.01 0.01 0.01 0.01 0.01 0.01 0.01 0.01 0.01 0.01 0.01 0.01 0.01 0.01 0.01 0.01 0.01 0.01 0.01 0.02 0.02 0.02 0.02 0.02 0.03 0.03 0.03 0.02 0.01 0.01 0.01 0.00 0.00 0.00 0.00 0.00 0.00 0.00 0.00 0.00 0.00 0.00 0.00 0.00
0.01 0.01 0.00 0.00 0.01 0.01 0.01 0.01 0.01 0.01 0.01 0.01 0.01 0.01 0.01 0.01 0.01 0.01 0.01 0.02 0.02 0.03 0.02 0.03 0.03 0.03 0.03 0.02 0.02 0.01 0.01 0.01 0.00 0.00 0.00 0.00 0.00 0.00 0.00 0.00 0.00 0.00 0.00 0.00
0.01 0.01 0.00 0.00 0.00 0.00 0.00 0.01 0.01 0.01 0.01 0.01 0.01 0.01 0.01 0.01 0.01 0.01 0.01 0.02 0.02 0.03 0.02 0.02 0.02 0.02 0.02 0.02 0.02 0.01 0.01 0.01 0.00 0.00 0.00 0.00 0.00 0.00 0.00 0.00 0.00 0.00 0.00 0.00
0.00 0.00 0.00 0.00 0.00 0.00 0.00 0.00 0.00 0.01 0.01 0.01 0.01 0.01 0.01 0.01 0.01 0.01 0.01 0.02 0.02 0.02 0.02 0.02 0.02 0.02 0.02 0.02 0.02 0.01 0.01 0.01 0.00 0.00 0.00 0.00 0.00 0.00 0.00 0.00 0.00 0.00 0.00 0.00
MSLP
1013.91 1014.19 1014.40 1014.51 1014.52 1014.42 1014.21 1013.91 1013.55 1013.15 1012.77 1012.43 1012.19 1012.06 1012.08 1012.24 1012.55 1012.98 1013.50 1014.08 1014.69 1015.29 1015.87 1016.39 1016.86 1017.25 1017.58 1017.85 1018.06 1018.22 1018.33 1018.40 1018.44 1018.45 1018.44 1018.40 1018.34 1018.24 1018.13 1017.98 1017.80 1017.60 1017.38 1017.17
1013.92 1014.14 1014.26 1014.27 1014.17 1013.96 1013.67 1013.31 1012.93 1012.54 1012.21 1011.95 1011.80 1011.78 1011.90 1012.15 1012.52 1012.99 1013.54 1014.14 1014.76 1015.37 1015.97 1016.52 1017.02 1017.47 1017.85 1018.17 1018.42 1018.62 1018.76 1018.86 1018.91 1018.94 1018.94 1018.92 1018.89 1018.84 1018.77 1018.67 1018.56 1018.43 1018.27 1018.12
1013.91 1014.05 1014.07 1013.97 1013.75 1013.44 1013.06 1012.64 1012.24 1011.88 1011.61 1011.45 1011.42 1011.53 1011.76 1012.12 1012.57 1013.10 1013.68 1014.30 1014.92 1015.53 1016.13 1016.69 1017.21 1017.68 1018.09 1018.44 1018.73 1018.96 1019.13 1019.25 1019.32 1019.36 1019.37 1019.37 1019.36 1019.35 1019.32 1019.28 1019.23 1019.16 1019.07 1018.97
1013.78 1013.84 1013.77 1013.56 1013.24 1012.82 1012.37 1011.93 1011.53 1011.22 1011.03 1010.98 1011.09 1011.34 1011.71 1012.18 1012.73 1013.32 1013.94 1014.57 1015.18 1015.78 1016.36 1016.90 1017.42 1017.89 1018.32 1018.69 1019.00 1019.25 1019.44 1019.57 1019.66 1019.71 1019.74 1019.75 1019.77 1019.78 1019.79 1019.81 1019.81 1019.79 1019.76 1019.71
1013.44 1013.43 1013.28 1012.99 1012.60 1012.13 1011.65 1011.21 1010.85 1010.62 1010.54 1010.62 1010.87 1011.26 1011.77 1012.36 1012.99 1013.65 1014.30 1014.94 1015.54 1016.11 1016.65 1017.17 1017.65 1018.10 1018.52 1018.90 1019.22 1019.48 1019.69 1019.84 1019.94 1020.01 1020.05 1020.08 1020.11 1020.15 1020.20 1020.25 1020.29 1020.32 1020.34 1020.32
1012.87 1012.80 1012.60 1012.27 1011.85 1011.39 1010.94 1010.55 1010.27 1010.14 1010.19 1010.40 1010.79 1011.31 1011.94 1012.63 1013.34 1014.05 1014.72 1015.35 1015.93 1016.46 1016.96 1017.43 1017.88 1018.30 1018.70 1019.06 1019.38 1019.66 1019.88 1020.04 1020.16 1020.25 1020.30 1020.36 1020.41 1020.47 1020.54 1020.62 1020.70 1020.76 1020.80 1020.81
1012.08 1011.96 1011.74 1011.43 1011.06 1010.66 1010.29 1010.01 1009.85 1009.84 1010.01 1010.35 1010.86 1011.49 1012.20 1012.96 1013.71 1014.44 1015.12 1015.73 1016.28 1016.78 1017.23 1017.66 1018.06 1018.45 1018.82 1019.17 1019.49 1019.77 1020.00 1020.18 1020.32 1020.43 1020.51 1020.58 1020.65 1020.73 1020.82 1020.92 1021.02 1021.10 1021.16 1021.19
1011.14 1011.01 1010.81 1010.56 1010.28 1010.00 1009.77 1009.62 1009.60 1009.73 1010.01 1010.45 1011.04 1011.73 1012.48 1013.27 1014.03 1014.76 1015.42 1016.01 1016.52 1016.98 1017.40 1017.79 1018.16 1018.52 1018.87 1019.21 1019.53 1019.81 1020.05 1020.26 1020.42 1020.55 1020.66 1020.75 1020.84 1020.94 1021.04 1021.15 1021.26 1021.35 1021.42 1021.45
1010.17 1010.04 1009.90 1009.75 1009.60 1009.48 1009.41 1009.43 1009.54 1009.78 1010.16 1010.66 1011.28 1011.98 1012.72 1013.48 1014.22 1014.91 1015.54 1016.10 1016.58 1017.02 1017.41 1017.78 1018.14 1018.48 1018.83 1019.16 1019.48 1019.78 1020.04 1020.27 1020.46 1020.62 1020.75 1020.86 1020.98 1021.09 1021.20 1021.32 1021.43 1021.52 1021.59 1021.62
1009.28 1009.18 1009.12 1009.10 1009.11 1009.16 1009.26 1009.42 1009.66 1009.98 1010.40 1010.91 1011.51 1012.16 1012.84 1013.54 1014.21 1014.85 1015.43 1015.96 1016.43 1016.85 1017.25 1017.62 1017.98 1018.33 1018.69 1019.03 1019.37 1019.68 1019.97 1020.22 1020.44 1020.62 1020.78 1020.93 1021.06 1021.18 1021.30 1021.42 1021.52 1021.61 1021.68 1021.71
1008.61 1008.55 1008.59 1008.70 1008.86 1009.07 1009.31 1009.59 1009.91 1010.28 1010.69 1011.16 1011.67 1012.23 1012.81 1013.40 1013.99 1014.55 1015.09 1015.59 1016.06 1016.50 1016.91 1017.31 1017.70 1018.08 1018.46 1018.83 1019.19 1019.53 1019.84 1020.11 1020.36 1020.58 1020.77 1020.93 1021.08 1021.22 1021.35 1021.46 1021.56 1021.64 1021.70 1021.72
1008.23 1008.23 1008.37 1008.59 1008.89 1009.22 1009.57 1009.92 1010.27 1010.62 1010.98 1011.35 1011.75 1012.18 1012.62 1013.10 1013.58 1014.07 1014.57 1015.05 1015.53 1015.99 1016.45 1016.89 1017.33 1017.75 1018.17 1018.57 1018.96 1019.32 1019.66 1019.97 1020.24 1020.49 1020.71 1020.90 1021.07 1021.22 1021.35 1021.46 1021.55 1021.62 1021.67 1021.69
1008.19 1008.26 1008.47 1008.80 1009.18 1009.59 1009.99 1010.36 1010.69 1010.98 1011.24 1011.50 1011.76 1012.03 1012.34 1012.69 1013.07 1013.50 1013.95 1014.43 1014.93 1015.43 1015.93 1016.43 1016.91 1017.39 1017.84 1018.28 1018.69 1019.08 1019.44 1019.78 1020.08 1020.36 1020.61 1020.83 1021.02 1021.18 1021.32 1021.43 1021.52 1021.57 1021.61 1021.61
1008.47 1008.61 1008.90 1009.28 1009.71 1010.14 1010.54 1010.88 1011.14 1011.35 1011.50 1011.62 1011.73 1011.86 1012.04 1012.27 1012.57 1012.94 1013.36 1013.84 1014.35 1014.89 1015.43 1015.97 1016.50 1017.01 1017.50 1017.96 1018.40 1018.81 1019.19 1019.55 1019.89 1020.19 1020.47 1020.72 1020.94 1021.12 1021.27 1021.38 1021.46 1021.50 1021.52 1021.51
1009.03 1009.24 1009.57 1009.98 1010.41 1010.82 1011.18 1011.45 1011.63 1011.72 1011.75 1011.75 1011.73 1011.74 1011.81 1011.95 1012.18 1012.49 1012.89 1013.35 1013.87 1014.43 1015.00 1015.56 1016.12 1016.65 1017.15 1017.63 1018.08 1018.51 1018.91 1019.29 1019.66 1019.99 1020.30 1020.58 1020.82 1021.03 1021.18 1021.30 1021.37 1021.40 1021.41 1021.38
1009.80 1010.06 1010.41 1010.81 1011.21 1011.57 1011.85 1012.03 1012.12 1012.11 1012.04 1011.92 1011.81 1011.73 1011.71 1011.78 1011.95 1012.22 1012.58 1013.03 1013.54 1014.09 1014.65 1015.22 1015.77 1016.30 1016.80 1017.28 1017.74 1018.17 1018.59 1018.99 1019.38 1019.75 1020.09 1020.40 1020.67 1020.90 1021.07 1021.19 1021.26 1021.28 1021.26 1021.22
1010.68 1010.98 1011.33 1011.70 1012.04 1012.32 1012.51 1012.61 1012.60 1012.51 1012.36 1012.17 1011.99 1011.85 1011.78 1011.80 1011.92 1012.15 1012.47 1012.88 1013.35 1013.86 1014.39 1014.93 1015.45 1015.96 1016.44 1016.91 1017.36 1017.80 1018.23 1018.65 1019.06 1019.46 1019.84 1020.18 1020.47 1020.72 1020.91 1021.03 1021.10 1021.11 1021.09 1021.03
1011.58 1011.90 1012.23 1012.55 1012.82 1013.01 1013.12 1013.13 1013.05 1012.90 1012.70 1012.48 1012.27 1012.10 1012.00 1011.98 1012.06 1012.25 1012.52 1012.87 1013.27 1013.72 1014.19 1014.67 1015.14 1015.61 1016.06 1016.51 1016.95 1017.39 1017.83 1018.27 1018.71 1019.13 1019.54 1019.90 1020.22 1020.48 1020.68 1020.82 1020.88 1020.90 1020.86 1020.79
1012.45 1012.76 1013.05 1013.30 1013.48 1013.60 1013.63 1013.58 1013.46 1013.27 1013.06 1012.82 1012.61 1012.43 1012.32 1012.28 1012.32 1012.45 1012.66 1012.93 1013.26 1013.63 1014.02 1014.42 1014.83 1015.25 1015.67 1016.09 1016.52 1016.96 1017.41 1017.87 1018.32 1018.77 1019.19 1019.57 1019.90 1020.18 1020.39 1020.53 1020.60 1020.61 1020.58 1020.50
1013.22 1013.50 1013.73 1013.91 1014.02 1014.06 1014.04 1013.94 1013.80 1013.61 1013.39 1013.18 1012.97 1012.80 1012.68 1012.62 1012.62 1012.69 1012.83 1013.02 1013.25 1013.53 1013.84 1014.16 1014.51 1014.88 1015.26 1015.67 1016.09 1016.53 1016.99 1017.45 1017.92 1018.37 1018.80 1019.19 1019.53 1019.81 1020.02 1020.17 1020.24 1020.26 1020.23 1020.17
1013.87 1014.11 1014.28 1014.39 1014.43 1014.42 1014.35 1014.23 1014.08 1013.90 1013.70 1013.50 1013.32 1013.16 1013.03 1012.94 1012.90 1012.91 1012.97 1013.08 1013.22 1013.42 1013.64 1013.90 1014.19 1014.52 1014.88 1015.27 1015.69 1016.13 1016.59 1017.06 1017.52 1017.97 1018.40 1018.78 1019.11 1019.39 1019.60 1019.74 1019.83 1019.86 1019.84 1019.79
1014.42 1014.59 1014.70 1014.76 1014.75 1014.70 1014.60 1014.47 1014.32 1014.16 1013.98 1013.80 1013.63 1013.47 1013.33 1013.22 1013.13 1013.08 1013.07 1013.10 1013.17 1013.28 1013.44 1013.65 1013.90 1014.20 1014.54 1014.92 1015.34 1015.78 1016.23 1016.69 1017.15 1017.58 1017.99 1018.35 1018.66 1018.93 1019.13 1019.27 1019.37 1019.41 1019.41 1019.38
1014.85 1014.98 1015.04 1015.05 1015.01 1014.93 1014.83 1014.70 1014.56 1014.40 1014.24 1014.08 1013.91 1013.75 1013.59 1013.44 1013.31 1013.21 1013.13 1013.09 1013.10 1013.16 1013.27 1013.44 1013.67 1013.95 1014.28 1014.65 1015.06 1015.49 1015.93 1016.37 1016.80 1017.21 1017.58 1017.92 1018.21 1018.45 1018.64 1018.78 1018.88 1018.94 1018.97 1018.96
1015.20 1015.29 1015.32 1015.30 1015.25 1015.16 1015.06 1014.94 1014.81 1014.66 1014.51 1014.35 1014.18 1014.00 1013.82 1013.63 1013.46 1013.31 1013.18 1013.09 1013.06 1013.07 1013.16 1013.30 1013.51 1013.78 1014.10 1014.46 1014.86 1015.27 1015.69 1016.10 1016.49 1016.86 1017.20 1017.49 1017.75 1017.97 1018.15 1018.29 1018.40 1018.48 1018.52 1018.53
1015.47 1015.54 1015.56 1015.54 1015.48 1015.41 1015.31 1015.21 1015.08 1014.95 1014.80 1014.63 1014.45 1014.25 1014.04 1013.82 1013.61 1013.42 1013.25 1013.13 1013.06 1013.05 1013.11 1013.24 1013.44 1013.69 1014.00 1014.35 1014.72 1015.10 1015.49 1015.86 1016.21 1016.54 1016.83 1017.09 1017.31 1017.51 1017.68 1017.82 1017.94 1018.02 1018.08 1018.10
1015.65 1015.72 1015.75 1015.74 1015.71 1015.65 1015.58 1015.49 1015.38 1015.25 1015.10 1014.92 1014.72 1014.50 1014.26 1014.02 1013.78 1013.56 1013.36 1013.21 1013.12 1013.10 1013.14 1013.26 1013.44 1013.68 1013.96 1014.28 1014.63 1014.97 1015.32 1015.64 1015.95 1016.23 1016.48 1016.70 1016.90 1017.08 1017.23 1017.37 1017.49 1017.58 1017.64 1017.67
1015.72 1015.80 1015.86 1015.88 1015.88 1015.86 1015.81 1015.74 1015.65 1015.53 1015.38 1015.20 1014.98 1014.75 1014.49 1014.23 1013.97 1013.72 1013.51 1013.35 1013.24 1013.20 1013.23 1013.33 1013.48 1013.70 1013.95 1014.24 1014.54 1014.85 1015.14 1015.42 1015.68 1015.92 1016.14 1016.33 1016.51 1016.67 1016.82 1016.95 1017.06 1017.15 1017.20 1017.21
Thickness
5528 5533 5531 5529 5532 5533 5527 5532 5533 5550 5558 5563 5566 5568 5570 5571 5571 5570 5566 5562 5559 5554 5551 5549 5547 5546 5545 5543 5542 5542 5540 5538 5536 5535 5534 5533 5531 5529 5527 5525 5522 5518 5513 5508
5520 5528 5528 5526 5531 5534 5533 5535 5539 5544 5550 5563 5568 5568 5568 5568 5568 5566 5564 5558 5553 5549 5545 5542 5539 5538 5536 5534 5533 5532 5530 5528 5526 5525 5523 5521 5520 5518 5516 5513 5509 5505 5500 5495
5518 5525 5523 5518 5536 5537 5539 5543 5541 5539 5549 5559 5561 5564 5564 5564 5564 5563 5559 5552 5546 5541 5537 5534 5531 5530 5527 5526 5524 5522 5520 5519 5517 5515 5512 5511 5509 5506 5504 5500 5496 5492 5487 5483
5516 5513 5502 5539 5553 5551 5546 5546 5548 5552 5557 5559 5560 5561 5561 5561 5560 5556 5551 5545 5539 5534 5530 5527 5525 5522 5520 5518 5516 5514 5512 5510 5508 5505 5503 5500 5498 5495 5492 5489 5485 5480 5475 5471
5511 5513 5525 5543 5546 5548 5545 5547 5554 5553 5554 5556 5557 5555 5552 5552 5552 5548 5542 5538 5532 5528 5525 5521 5519 5516 5514 5510 5508 5506 5503 5502 5499 5497 5494 5491 5488 5485 5482 5478 5474 5470 5466 5461
5511 5509 5518 5541 5546 5550 5546 5544 5558 5556 5553 5553 5551 5544 5545 5541 5539 5534 5532 5528 5524 5521 5519 5515 5513 5510 5507 5504 5501 5498 5496 5494 5491 5489 5486 5483 5480 5477 5473 5470 5466 5463 5458 5454
5505 5508 5522 5540 5542 5542 5534 5542 5551 5552 5551 5550 5547 5543 5537 5534 5531 5527 5524 5521 5518 5516 5512 5509 5507 5504 5500 5496 5493 5491 5489 5487 5484 5482 5479 5476 5473 5470 5466 5463 5460 5456 5451 5447
5507 5504 5516 5535 5536 5535 5538 5542 5544 5544 5544 5543 5539 5533 5531 5528 5524 5520 5517 5514 5512 5509 5506 5503 5501 5498 5493 5489 5487 5485 5483 5480 5478 5475 5473 5470 5466 5463 5460 5457 5453 5449 5444 5440
5515 5517 5529 5534 5536 5536 5538 5537 5538 5537 5537 5537 5534 5530 5527 5522 5518 5515 5512 5509 5507 5504 5501 5498 5496 5493 5488 5485 5483 5480 5477 5475 5472 5469 5466 5464 5460 5457 5454 5451 5446 5442 5437 5433
5518 5525 5529 5530 5531 5532 5533 5532 5531 5531 5531 5531 5529 5528 5524 5519 5515 5512 5509 5506 5503 5500 5497 5494 5492 5490 5487 5483 5480 5477 5473 5469 5466 5463 5460 5457 5454 5450 5447 5443 5439 5434 5430 5426
5513 5520 5525 5527 5527 5527 5526 5525 5524 5524 5525 5524 5523 5522 5520 5516 5513 5509 5507 5503 5500 5497 5495 5492 5490 5486 5483 5479 5476 5472 5467 5464 5461 5458 5454 5450 5446 5442 5439 5434 5431 5427 5422 5418
5508 5518 5519 5520 5520 5520 5518 5516 5515 5515 5516 5517 5516 5516 5515 5513 5510 5507 5503 5500 5497 5494 5492 5489 5486 5482 5479 5475 5472 5467 5462 5458 5454 5451 5448 5444 5439 5435 5432 5429 5425 5421 5417 5413
5508 5510 5510 5509 5508 5508 5507 5506 5505 5506 5507 5507 5508 5509 5509 5508 5506 5504 5501 5497 5495 5492 5489 5486 5482 5478 5474 5471 5467 5463 5457 5453 5449 5445 5442 5438 5434 5429 5424 5421 5418 5414 5410 5406
5499 5501 5500 5500 5496 5495 5495 5494 5495 5497 5498 5500 5500 5501 5501 5501 5500 5499 5497 5495 5492 5488 5485 5482 5478 5474 5470 5466 5462 5458 5453 5449 5445 5440 5436 5432 5428 5424 5419 5415 5410 5406 5404 5400
5488 5488 5487 5486 5484 5483 5483 5483 5484 5486 5489 5491 5492 5492 5493 5493 5493 5493 5491 5489 5486 5483 5480 5477 5473 5469 5466 5461 5456 5452 5447 5442 5438 5434 5430 5426 5422 5417 5413 5409 5405 5401 5397 5394
5475 5475 5474 5474 5473 5473 5473 5474 5475 5478 5480 5481 5482 5484 5485 5486 5486 5486 5485 5482 5480 5477 5475 5472 5468 5465 5461 5456 5451 5446 5442 5439 5434 5428 5424 5419 5415 5410 5406 5402 5398 5394 5390 5386
5463 5462 5460 5459 5462 5464 5465 5465 5466 5468 5470 5472 5474 5476 5477 5477 5477 5477 5476 5475 5474 5471 5469 5466 5463 5459 5455 5451 5446 5441 5436 5432 5429 5423 5418 5413 5409 5405 5401 5396 5392 5388 5384 5381
5454 5454 5454 5453 5452 5453 5454 5455 5456 5458 5460 5464 5466 5468 5469 5469 5469 5469 5468 5466 5464 5462 5460 5459 5456 5453 5449 5445 5441 5436 5431 5426 5421 5416 5412 5408 5403 5399 5395 5390 5386 5382 5378 5374
5441 5441 5441 5441 5441 5442 5443 5444 5446 5449 5452 5455 5457 5459 5461 5462 5462 5462 5460 5457 5456 5454 5453 5452 5450 5446 5442 5439 5435 5430 5425 5420 5415 5411 5407 5404 5398 5393 5389 5385 5380 5376 5372 5368
5430 5430 5431 5431 5432 5432 5434 5435 5437 5440 5443 5446 5449 5451 5452 5452 5452 5451 5451 5450 5450 5449 5448 5445 5443 5439 5436 5432 5429 5424 5419 5415 5410 5405 5401 5396 5392 5388 5383 5380 5375 5371 5367 5362
5422 5422 5422 5423 5423 5424 5425 5426 5427 5430 5433 5436 5439 5440 5442 5442 5443 5442 5442 5441 5442 5441 5440 5438 5435 5432 5429 5426 5422 5417 5413 5409 5404 5400 5395 5391 5386 5382 5378 5374 5370 5366 5361 5357
5414 5414 5415 5415 5415 5416 5416 5417 5418 5421 5423 5425 5427 5429 5431 5432 5433 5433 5434 5433 5434 5433 5432 5430 5428 5425 5422 5420 5415 5411 5407 5403 5399 5394 5389 5385 5381 5376 5372 5367 5362 5359 5355 5349
5407 5407 5407 5407 5407 5407 5409 5409 5409 5411 5413 5415 5417 5419 5421 5422 5423 5424 5424 5425 5425 5426 5424 5422 5421 5419 5416 5413 5408 5404 5401 5397 5393 5388 5384 5379 5375 5370 5366 5361 5357 5353 5348 5343
5401 5400 5398 5399 5399 5401 5400 5400 5401 5403 5405 5407 5409 5410 5412 5413 5414 5415 5416 5418 5418 5418 5417 5416 5415 5413 5410 5405 5401 5398 5394 5390 5386 5382 5378 5373 5369 5364 5360 5356 5351 5347 5342 5337
5392 5391 5391 5391 5392 5393 5393 5393 5395 5397 5398 5399 5401 5402 5403 5404 5405 5406 5408 5409 5411 5411 5409 5409 5408 5406 5403 5398 5394 5391 5388 5384 5380 5375 5371 5367 5363 5358 5354 5350 5345 5340 5336 5332
5386 5386 5386 5386 5385 5385 5385 5386 5387 5389 5390 5392 5393 5394 5395 5396 5397 5398 5400 5401 5402 5402 5401 5400 5399 5398 5395 5392 5388 5385 5381 5378 5374 5370 5365 5361 5357 5353 5348 5344 5339 5335 5330 5326
5379 5379 5379 5379 5380 5379 5379 5379 5380 5381 5382 5383 5384 5386 5387 5388 5389 5390 5391 5392 5393 5393 5393 5392 5391 5390 5387 5384 5381 5378 5374 5371 5367 5364 5359 5355 5351 5347 5342 5338 5333 5329 5324 5320